owner,sensor,date,latitude,longitude,vertical_datum,wind_speed,wind_to_direction,wind_speed_of_gust,qcFlag 
ADCP,ioos:station:wmo:42369:1,2013-08-01T17:40:00Z,27.2070,-90.2830,60.4,3.3,336.0,99.0,'11111222,11111222,11144222' 
ADCP,ioos:station:wmo:42369:1,2013-08-01T18:00:00Z,27.2070,-90.2830,60.4,3.3,317.0,99.0,'11111222,11111222,11144222' 
ADCP,ioos:station:wmo:42369:1,2013-08-01T18:20:00Z,27.2070,-90.2830,60.4,3.2,253.0,99.0,'11111222,11111222,11144222' 
ADCP,ioos:station:wmo:42369:1,2013-08-01T18:40:00Z,27.2070,-90.2830,60.4,3.2,205.0,99.0,'11111222,11111222,11144222' 
ADCP,ioos:station:wmo:42369:1,2013-08-01T19:00:00Z,27.2070,-90.2830,60.4,2.0,289.0,99.0,'11111222,11111222,11144222' 
ADCP,ioos:station:wmo:42369:1,2013-08-01T19:20:00Z,27.2070,-90.2830,60.4,2.0,289.0,99.0,'11111222,11111222,11144222' 
ADCP,ioos:station:wmo:42369:1,2013-08-01T19:40:00Z,27.2070,-90.2830,60.4,2.0,289.0,99.0,'11111222,11111222,11144222' 
ADCP,ioos:station:wmo:42369:1,2013-08-01T20:00:00Z,27.2070,-90.2830,60.4,2.8,200.0,99.0,'11111222,11111222,11144222' 
ADCP,ioos:station:wmo:42369:1,2013-08-01T20:20:00Z,27.2070,-90.2830,60.4,2.8,200.0,99.0,'11111222,11111222,11144222' 
ADCP,ioos:station:wmo:42369:1,2013-08-01T20:40:00Z,27.2070,-90.2830,60.4,2.8,200.0,99.0,'11111222,11111222,11144222' 
ADCP,ioos:station:wmo:42369:1,2013-08-01T21:00:00Z,27.2070,-90.2830,60.4,2.8,200.0,99.0,'11111222,11111222,11144222' 
ADCP,ioos:station:wmo:42369:1,2013-08-01T21:20:00Z,27.2070,-90.2830,60.4,3.7,32.0,99.0,'11111222,11111222,11144222' 
ADCP,ioos:station:wmo:42369:1,2013-08-01T21:40:00Z,27.2070,-90.2830,60.4,3.7,32.0,99.0,'11111222,11111222,11144222' 
ADCP,ioos:station:wmo:42369:1,2013-08-01T22:00:00Z,27.2070,-90.2830,60.4,3.7,32.0,99.0,'11111222,11111222,11144222' 
ADCP,ioos:station:wmo:42369:1,2013-08-01T22:20:00Z,27.2070,-90.2830,60.4,3.7,32.0,99.0,'11111222,11111222,11144222' 
ADCP,ioos:station:wmo:42369:1,2013-08-01T22:40:00Z,27.2070,-90.2830,60.4,2.3,34.0,99.0,'11111222,11111222,11144222' 
ADCP,ioos:station:wmo:42369:1,2013-08-01T23:00:00Z,27.2070,-90.2830,60.4,2.3,34.0,99.0,'11111222,11111222,11144222' 
ADCP,ioos:station:wmo:42369:1,2013-08-01T23:20:00Z,27.2070,-90.2830,60.4,2.3,33.0,99.0,'11111222,11111222,11144222' 
ADCP,ioos:station:wmo:42369:1,2013-08-01T23:40:00Z,27.2070,-90.2830,60.4,1.4,63.0,99.0,'11111222,11111222,11144222' 
ADCP,ioos:station:wmo:42369:1,2013-08-02T00:00:00Z,27.2070,-90.2830,60.4,1.6,58.0,99.0,'11111222,11111222,11144222' 
ADCP,ioos:station:wmo:42369:1,2013-08-02T00:20:00Z,27.2070,-90.2830,60.4,0.7,69.0,99.0,'11111222,11111222,11144222' 
ADCP,ioos:station:wmo:42369:1,2013-08-02T00:40:00Z,27.2070,-90.2830,60.4,0.7,69.0,99.0,'11111222,11111222,11144222' 
ADCP,ioos:station:wmo:42369:1,2013-08-02T01:00:00Z,27.2070,-90.2830,60.4,1.1,89.0,99.0,'11111222,11111222,11144222' 
ADCP,ioos:station:wmo:42369:1,2013-08-02T01:20:00Z,27.2070,-90.2830,60.4,1.1,89.0,99.0,'11111222,11111222,11144222' 
ADCP,ioos:station:wmo:42369:1,2013-08-02T01:40:00Z,27.2070,-90.2830,60.4,0.8,93.0,99.0,'11111222,11111222,11144222' 
ADCP,ioos:station:wmo:42369:1,2013-08-02T02:00:00Z,27.2070,-90.2830,60.4,0.5,97.0,99.0,'11111222,11111222,11144222' 
ADCP,ioos:station:wmo:42369:1,2013-08-02T02:20:00Z,27.2070,-90.2830,60.4,0.5,97.0,99.0,'11111222,11111222,11144222' 
ADCP,ioos:station:wmo:42369:1,2013-08-02T02:40:00Z,27.2070,-90.2830,60.4,0.5,97.0,99.0,'11111222,11111222,11144222' 
ADCP,ioos:station:wmo:42369:1,2013-08-02T03:00:00Z,27.2070,-90.2830,60.4,0.7,93.0,99.0,'11111222,11111222,11144222' 
ADCP,ioos:station:wmo:42369:1,2013-08-02T03:20:00Z,27.2070,-90.2830,60.4,0.7,93.0,99.0,'11111222,11111222,11144222' 
ADCP,ioos:station:wmo:42369:1,2013-08-02T03:40:00Z,27.2070,-90.2830,60.4,1.4,104.0,99.0,'11111222,11111222,11144222' 
ADCP,ioos:station:wmo:42369:1,2013-08-02T04:00:00Z,27.2070,-90.2830,60.4,1.4,104.0,99.0,'11111222,11111222,11144222' 
ADCP,ioos:station:wmo:42369:1,2013-08-02T04:20:00Z,27.2070,-90.2830,60.4,0.4,91.0,99.0,'11111222,11111222,11144222' 
ADCP,ioos:station:wmo:42369:1,2013-08-02T04:40:00Z,27.2070,-90.2830,60.4,0.4,91.0,99.0,'11111222,11111222,11144222' 
ADCP,ioos:station:wmo:42369:1,2013-08-02T05:00:00Z,27.2070,-90.2830,60.4,0.6,149.0,99.0,'11111222,11111222,11144222' 
ADCP,ioos:station:wmo:42369:1,2013-08-02T05:20:00Z,27.2070,-90.2830,60.4,0.6,149.0,99.0,'11111222,11111222,11144222' 
ADCP,ioos:station:wmo:42369:1,2013-08-02T05:40:00Z,27.2070,-90.2830,60.4,1.9,179.0,99.0,'11111222,11111222,11144222' 
ADCP,ioos:station:wmo:42369:1,2013-08-02T06:00:00Z,27.2070,-90.2830,60.4,1.9,179.0,99.0,'11111222,11111222,11144222' 
ADCP,ioos:station:wmo:42369:1,2013-08-02T06:20:00Z,27.2070,-90.2830,60.4,1.9,179.0,99.0,'11111222,11111222,11144222' 
ADCP,ioos:station:wmo:42369:1,2013-08-02T06:40:00Z,27.2070,-90.2830,60.4,1.9,179.0,99.0,'11111222,11111222,11144222' 
ADCP,ioos:station:wmo:42369:1,2013-08-02T07:00:00Z,27.2070,-90.2830,60.4,2.5,188.0,99.0,'11111222,11111222,11144222' 
ADCP,ioos:station:wmo:42369:1,2013-08-02T07:20:00Z,27.2070,-90.2830,60.4,2.2,191.0,99.0,'11111222,11111222,11144222' 
ADCP,ioos:station:wmo:42369:1,2013-08-02T07:40:00Z,27.2070,-90.2830,60.4,2.2,191.0,99.0,'11111222,11111222,11144222' 
ADCP,ioos:station:wmo:42369:1,2013-08-02T08:00:00Z,27.2070,-90.2830,60.4,2.2,191.0,99.0,'11111222,11111222,11144222' 
ADCP,ioos:station:wmo:42369:1,2013-08-02T08:20:00Z,27.2070,-90.2830,60.4,1.8,198.0,99.0,'11111222,11111222,11144222' 
ADCP,ioos:station:wmo:42369:1,2013-08-02T08:40:00Z,27.2070,-90.2830,60.4,2.0,216.0,99.0,'11111222,11111222,11144222' 
ADCP,ioos:station:wmo:42369:1,2013-08-02T09:00:00Z,27.2070,-90.2830,60.4,2.0,209.0,99.0,'11111222,11111222,11144222' 
ADCP,ioos:station:wmo:42369:1,2013-08-02T09:20:00Z,27.2070,-90.2830,60.4,2.3,204.0,99.0,'11111222,11111222,11144222' 
ADCP,ioos:station:wmo:42369:1,2013-08-02T09:40:00Z,27.2070,-90.2830,60.4,2.0,204.0,99.0,'11111222,11111222,11144222' 
ADCP,ioos:station:wmo:42369:1,2013-08-02T10:00:00Z,27.2070,-90.2830,60.4,2.0,204.0,99.0,'11111222,11111222,11144222' 
ADCP,ioos:station:wmo:42369:1,2013-08-02T10:20:00Z,27.2070,-90.2830,60.4,1.6,217.0,99.0,'11111222,11111222,11144222' 
ADCP,ioos:station:wmo:42369:1,2013-08-02T10:40:00Z,27.2070,-90.2830,60.4,1.9,239.0,99.0,'11111222,11111222,11144222' 
ADCP,ioos:station:wmo:42369:1,2013-08-02T11:00:00Z,27.2070,-90.2830,60.4,0.4,171.0,99.0,'11111222,11111222,11144222' 
ADCP,ioos:station:wmo:42369:1,2013-08-02T11:20:00Z,27.2070,-90.2830,60.4,0.5,217.0,99.0,'11111222,11111222,11144222' 
ADCP,ioos:station:wmo:42369:1,2013-08-02T11:40:00Z,27.2070,-90.2830,60.4,0.3,199.0,99.0,'11111222,11111222,11144222' 
ADCP,ioos:station:wmo:42369:1,2013-08-02T12:00:00Z,27.2070,-90.2830,60.4,0.3,199.0,99.0,'11111222,11111222,11144222' 
ADCP,ioos:station:wmo:42369:1,2013-08-02T12:20:00Z,27.2070,-90.2830,60.4,0.3,199.0,99.0,'11111222,11111222,11144222' 
ADCP,ioos:station:wmo:42369:1,2013-08-02T12:40:00Z,27.2070,-90.2830,60.4,0.6,214.0,99.0,'11111222,11111222,11144222' 
ADCP,ioos:station:wmo:42369:1,2013-08-02T13:00:00Z,27.2070,-90.2830,60.4,0.5,289.0,99.0,'11111222,11111222,11144222' 
ADCP,ioos:station:wmo:42369:1,2013-08-02T13:20:00Z,27.2070,-90.2830,60.4,0.5,243.0,99.0,'11111222,11111222,11144222' 
ADCP,ioos:station:wmo:42369:1,2013-08-02T13:40:00Z,27.2070,-90.2830,60.4,0.5,243.0,99.0,'11111222,11111222,11144222' 
ADCP,ioos:station:wmo:42369:1,2013-08-02T14:00:00Z,27.2070,-90.2830,60.4,0.5,243.0,99.0,'11111222,11111222,11144222' 
ADCP,ioos:station:wmo:42369:1,2013-08-02T14:20:00Z,27.2070,-90.2830,60.4,0.5,243.0,99.0,'11111222,11111222,11144222' 
ADCP,ioos:station:wmo:42369:1,2013-08-02T14:40:00Z,27.2070,-90.2830,60.4,0.5,243.0,99.0,'11111222,11111222,11144222' 
ADCP,ioos:station:wmo:42369:1,2013-08-02T15:00:00Z,27.2070,-90.2830,60.4,0.8,320.0,99.0,'11111222,11111222,11144222' 
ADCP,ioos:station:wmo:42369:1,2013-08-02T15:20:00Z,27.2070,-90.2830,60.4,0.8,320.0,99.0,'11111222,11111222,11144222' 
ADCP,ioos:station:wmo:42369:1,2013-08-02T15:40:00Z,27.2070,-90.2830,60.4,0.8,320.0,99.0,'11111222,11111222,11144222' 
ADCP,ioos:station:wmo:42369:1,2013-08-02T16:00:00Z,27.2070,-90.2830,60.4,0.8,320.0,99.0,'11111222,11111222,11144222' 
ADCP,ioos:station:wmo:42369:1,2013-08-02T16:20:00Z,27.2070,-90.2830,60.4,0.0,154.0,99.0,'11111222,11111222,11144222' 
ADCP,ioos:station:wmo:42369:1,2013-08-02T16:40:00Z,27.2070,-90.2830,60.4,0.0,154.0,99.0,'11111222,11111222,11144222' 
ADCP,ioos:station:wmo:42369:1,2013-08-02T17:00:00Z,27.2070,-90.2830,60.4,5.3,36.0,99.0,'11111222,11111222,11144222' 
ADCP,ioos:station:wmo:42369:1,2013-08-02T17:20:00Z,27.2070,-90.2830,60.4,3.1,184.0,99.0,'11111222,11111222,11144222' 
ADCP,ioos:station:wmo:42369:1,2013-08-02T17:40:00Z,27.2070,-90.2830,60.4,0.5,128.0,99.0,'11111222,11111222,11144222' 
ADCP,ioos:station:wmo:42369:1,2013-08-02T18:00:00Z,27.2070,-90.2830,60.4,0.5,128.0,99.0,'11111222,11111222,11144222' 
ADCP,ioos:station:wmo:42369:1,2013-08-02T18:20:00Z,27.2070,-90.2830,60.4,0.5,109.0,99.0,'11111222,11111222,11144222' 
ADCP,ioos:station:wmo:42369:1,2013-08-02T18:40:00Z,27.2070,-90.2830,60.4,0.2,133.0,99.0,'11111222,11111222,11144222' 
ADCP,ioos:station:wmo:42369:1,2013-08-02T19:00:00Z,27.2070,-90.2830,60.4,0.2,133.0,99.0,'11111222,11111222,11144222' 
ADCP,ioos:station:wmo:42369:1,2013-08-02T19:20:00Z,27.2070,-90.2830,60.4,0.5,109.0,99.0,'11111222,11111222,11144222' 
ADCP,ioos:station:wmo:42369:1,2013-08-02T19:40:00Z,27.2070,-90.2830,60.4,0.5,109.0,99.0,'11111222,11111222,11144222' 
ADCP,ioos:station:wmo:42369:1,2013-08-02T20:00:00Z,27.2070,-90.2830,60.4,0.5,109.0,99.0,'11111222,11111222,11144222' 
ADCP,ioos:station:wmo:42369:1,2013-08-02T20:20:00Z,27.2070,-90.2830,60.4,0.8,182.0,99.0,'11111222,11111222,11144222' 
ADCP,ioos:station:wmo:42369:1,2013-08-02T20:40:00Z,27.2070,-90.2830,60.4,0.5,206.0,99.0,'11111222,11111222,11144222' 
ADCP,ioos:station:wmo:42369:1,2013-08-02T21:00:00Z,27.2070,-90.2830,60.4,0.4,199.0,99.0,'11111222,11111222,11144222' 
ADCP,ioos:station:wmo:42369:1,2013-08-02T21:20:00Z,27.2070,-90.2830,60.4,0.2,153.0,99.0,'11111222,11111222,11144222' 
ADCP,ioos:station:wmo:42369:1,2013-08-02T21:40:00Z,27.2070,-90.2830,60.4,0.2,153.0,99.0,'11111222,11111222,11144222' 
ADCP,ioos:station:wmo:42369:1,2013-08-02T22:00:00Z,27.2070,-90.2830,60.4,0.2,153.0,99.0,'11111222,11111222,11144222' 
ADCP,ioos:station:wmo:42369:1,2013-08-02T22:20:00Z,27.2070,-90.2830,60.4,0.2,153.0,99.0,'11111222,11111222,11144222' 
ADCP,ioos:station:wmo:42369:1,2013-08-02T22:40:00Z,27.2070,-90.2830,60.4,1.4,85.0,99.0,'11111222,11111222,11144222' 
ADCP,ioos:station:wmo:42369:1,2013-08-02T23:00:00Z,27.2070,-90.2830,60.4,0.7,94.0,99.0,'11111222,11111222,11144222' 
ADCP,ioos:station:wmo:42369:1,2013-08-02T23:20:00Z,27.2070,-90.2830,60.4,0.8,85.0,99.0,'11111222,11111222,11144222' 
ADCP,ioos:station:wmo:42369:1,2013-08-02T23:40:00Z,27.2070,-90.2830,60.4,0.5,93.0,99.0,'11111222,11111222,11144222' 
ADCP,ioos:station:wmo:42369:1,2013-08-03T00:00:00Z,27.2070,-90.2830,60.4,0.6,89.0,99.0,'11111222,11111222,11144222' 
ADCP,ioos:station:wmo:42369:1,2013-08-03T00:20:00Z,27.2070,-90.2830,60.4,1.4,94.0,99.0,'11111222,11111222,11144222' 
ADCP,ioos:station:wmo:42369:1,2013-08-03T00:40:00Z,27.2070,-90.2830,60.4,0.9,118.0,99.0,'11111222,11111222,11144222' 
ADCP,ioos:station:wmo:42369:1,2013-08-03T01:00:00Z,27.2070,-90.2830,60.4,0.4,140.0,99.0,'11111222,11111222,11144222' 
ADCP,ioos:station:wmo:42369:1,2013-08-03T01:20:00Z,27.2070,-90.2830,60.4,0.8,134.0,99.0,'11111222,11111222,11144222' 
ADCP,ioos:station:wmo:42369:1,2013-08-03T01:40:00Z,27.2070,-90.2830,60.4,1.0,106.0,99.0,'11111222,11111222,11144222' 
ADCP,ioos:station:wmo:42369:1,2013-08-03T02:00:00Z,27.2070,-90.2830,60.4,1.5,95.0,99.0,'11111222,11111222,11144222' 
ADCP,ioos:station:wmo:42369:1,2013-08-03T02:20:00Z,27.2070,-90.2830,60.4,1.5,95.0,99.0,'11111222,11111222,11144222' 
ADCP,ioos:station:wmo:42369:1,2013-08-03T02:40:00Z,27.2070,-90.2830,60.4,1.5,95.0,99.0,'11111222,11111222,11144222' 
ADCP,ioos:station:wmo:42369:1,2013-08-03T03:00:00Z,27.2070,-90.2830,60.4,1.5,95.0,99.0,'11111222,11111222,11144222' 
ADCP,ioos:station:wmo:42369:1,2013-08-03T03:20:00Z,27.2070,-90.2830,60.4,2.3,113.0,99.0,'11111222,11111222,11144222' 
ADCP,ioos:station:wmo:42369:1,2013-08-03T03:40:00Z,27.2070,-90.2830,60.4,2.3,113.0,99.0,'11111222,11111222,11144222' 
ADCP,ioos:station:wmo:42369:1,2013-08-03T04:00:00Z,27.2070,-90.2830,60.4,2.3,113.0,99.0,'11111222,11111222,11144222' 
ADCP,ioos:station:wmo:42369:1,2013-08-03T04:20:00Z,27.2070,-90.2830,60.4,2.2,152.0,99.0,'11111222,11111222,11144222' 
ADCP,ioos:station:wmo:42369:1,2013-08-03T04:40:00Z,27.2070,-90.2830,60.4,2.7,145.0,99.0,'11111222,11111222,11144222' 
ADCP,ioos:station:wmo:42369:1,2013-08-03T05:00:00Z,27.2070,-90.2830,60.4,2.3,148.0,99.0,'11111222,11111222,11144222' 
ADCP,ioos:station:wmo:42369:1,2013-08-03T05:20:00Z,27.2070,-90.2830,60.4,2.3,148.0,99.0,'11111222,11111222,11144222' 
ADCP,ioos:station:wmo:42369:1,2013-08-03T05:40:00Z,27.2070,-90.2830,60.4,2.0,159.0,99.0,'11111222,11111222,11144222' 
ADCP,ioos:station:wmo:42369:1,2013-08-03T06:00:00Z,27.2070,-90.2830,60.4,2.0,159.0,99.0,'11111222,11111222,11144222' 
ADCP,ioos:station:wmo:42369:1,2013-08-03T06:20:00Z,27.2070,-90.2830,60.4,2.0,159.0,99.0,'11111222,11111222,11144222' 
ADCP,ioos:station:wmo:42369:1,2013-08-03T06:40:00Z,27.2070,-90.2830,60.4,2.0,159.0,99.0,'11111222,11111222,11144222' 
ADCP,ioos:station:wmo:42369:1,2013-08-03T07:00:00Z,27.2070,-90.2830,60.4,2.0,159.0,99.0,'11111222,11111222,11144222' 
ADCP,ioos:station:wmo:42369:1,2013-08-03T07:20:00Z,27.2070,-90.2830,60.4,2.3,155.0,99.0,'11111222,11111222,11144222' 
ADCP,ioos:station:wmo:42369:1,2013-08-03T07:40:00Z,27.2070,-90.2830,60.4,1.8,163.0,99.0,'11111222,11111222,11144222' 
ADCP,ioos:station:wmo:42369:1,2013-08-03T08:00:00Z,27.2070,-90.2830,60.4,1.8,163.0,99.0,'11111222,11111222,11144222' 
ADCP,ioos:station:wmo:42369:1,2013-08-03T08:20:00Z,27.2070,-90.2830,60.4,1.7,167.0,99.0,'11111222,11111222,11144222' 
ADCP,ioos:station:wmo:42369:1,2013-08-03T08:40:00Z,27.2070,-90.2830,60.4,3.2,167.0,99.0,'11111222,11111222,11144222' 
ADCP,ioos:station:wmo:42369:1,2013-08-03T09:00:00Z,27.2070,-90.2830,60.4,2.3,160.0,99.0,'11111222,11111222,11144222' 
ADCP,ioos:station:wmo:42369:1,2013-08-03T09:20:00Z,27.2070,-90.2830,60.4,2.3,160.0,99.0,'11111222,11111222,11144222' 
ADCP,ioos:station:wmo:42369:1,2013-08-03T09:40:00Z,27.2070,-90.2830,60.4,2.8,168.0,99.0,'11111222,11111222,11144222' 
ADCP,ioos:station:wmo:42369:1,2013-08-03T10:00:00Z,27.2070,-90.2830,60.4,4.4,171.0,99.0,'11111222,11111222,11144222' 
ADCP,ioos:station:wmo:42369:1,2013-08-03T10:20:00Z,27.2070,-90.2830,60.4,4.0,177.0,99.0,'11111222,11111222,11144222' 
ADCP,ioos:station:wmo:42369:1,2013-08-03T10:40:00Z,27.2070,-90.2830,60.4,4.0,177.0,99.0,'11111222,11111222,11144222' 
ADCP,ioos:station:wmo:42369:1,2013-08-03T11:00:00Z,27.2070,-90.2830,60.4,3.6,186.0,99.0,'11111222,11111222,11144222' 
ADCP,ioos:station:wmo:42369:1,2013-08-03T11:20:00Z,27.2070,-90.2830,60.4,3.4,185.0,99.0,'11111222,11111222,11144222' 
ADCP,ioos:station:wmo:42369:1,2013-08-03T11:40:00Z,27.2070,-90.2830,60.4,3.4,185.0,99.0,'11111222,11111222,11144222' 
ADCP,ioos:station:wmo:42369:1,2013-08-03T12:00:00Z,27.2070,-90.2830,60.4,3.3,185.0,99.0,'11111222,11111222,11144222' 
ADCP,ioos:station:wmo:42369:1,2013-08-03T12:20:00Z,27.2070,-90.2830,60.4,3.0,201.0,99.0,'11111222,11111222,11144222' 
ADCP,ioos:station:wmo:42369:1,2013-08-03T12:40:00Z,27.2070,-90.2830,60.4,3.0,201.0,99.0,'11111222,11111222,11144222' 
ADCP,ioos:station:wmo:42369:1,2013-08-03T13:00:00Z,27.2070,-90.2830,60.4,2.8,194.0,99.0,'11111222,11111222,11144222' 
ADCP,ioos:station:wmo:42369:1,2013-08-03T13:20:00Z,27.2070,-90.2830,60.4,2.9,197.0,99.0,'11111222,11111222,11144222' 
ADCP,ioos:station:wmo:42369:1,2013-08-03T13:40:00Z,27.2070,-90.2830,60.4,2.8,210.0,99.0,'11111222,11111222,11144222' 
ADCP,ioos:station:wmo:42369:1,2013-08-03T14:00:00Z,27.2070,-90.2830,60.4,3.0,212.0,99.0,'11111222,11111222,11144222' 
ADCP,ioos:station:wmo:42369:1,2013-08-03T14:20:00Z,27.2070,-90.2830,60.4,2.5,214.0,99.0,'11111222,11111222,11144222' 
ADCP,ioos:station:wmo:42369:1,2013-08-03T14:40:00Z,27.2070,-90.2830,60.4,2.3,210.0,99.0,'11111222,11111222,11144222' 
ADCP,ioos:station:wmo:42369:1,2013-08-03T15:00:00Z,27.2070,-90.2830,60.4,2.3,210.0,99.0,'11111222,11111222,11144222' 
ADCP,ioos:station:wmo:42369:1,2013-08-03T15:20:00Z,27.2070,-90.2830,60.4,2.5,209.0,99.0,'11111222,11111222,11144222' 
ADCP,ioos:station:wmo:42369:1,2013-08-03T15:40:00Z,27.2070,-90.2830,60.4,2.5,209.0,99.0,'11111222,11111222,11144222' 
ADCP,ioos:station:wmo:42369:1,2013-08-03T16:00:00Z,27.2070,-90.2830,60.4,2.2,202.0,99.0,'11111222,11111222,11144222' 
ADCP,ioos:station:wmo:42369:1,2013-08-03T16:20:00Z,27.2070,-90.2830,60.4,2.7,198.0,99.0,'11111222,11111222,11144222' 
ADCP,ioos:station:wmo:42369:1,2013-08-03T16:40:00Z,27.2070,-90.2830,60.4,2.6,203.0,99.0,'11111222,11111222,11144222' 
ADCP,ioos:station:wmo:42369:1,2013-08-03T17:00:00Z,27.2070,-90.2830,60.4,1.9,213.0,99.0,'11111222,11111222,11144222' 
ADCP,ioos:station:wmo:42369:1,2013-08-03T17:20:00Z,27.2070,-90.2830,60.4,1.8,220.0,99.0,'11111222,11111222,11144222' 
ADCP,ioos:station:wmo:42369:1,2013-08-03T17:40:00Z,27.2070,-90.2830,60.4,1.8,220.0,99.0,'11111222,11111222,11144222' 
ADCP,ioos:station:wmo:42369:1,2013-08-03T18:00:00Z,27.2070,-90.2830,60.4,1.8,220.0,99.0,'11111222,11111222,11144222' 
ADCP,ioos:station:wmo:42369:1,2013-08-03T18:20:00Z,27.2070,-90.2830,60.4,1.8,220.0,99.0,'11111222,11111222,11144222' 
ADCP,ioos:station:wmo:42369:1,2013-08-03T18:40:00Z,27.2070,-90.2830,60.4,1.8,220.0,99.0,'11111222,11111222,11144222' 
ADCP,ioos:station:wmo:42369:1,2013-08-03T19:00:00Z,27.2070,-90.2830,60.4,1.5,225.0,99.0,'11111222,11111222,11144222' 
ADCP,ioos:station:wmo:42369:1,2013-08-03T19:20:00Z,27.2070,-90.2830,60.4,1.7,217.0,99.0,'11111222,11111222,11144222' 
ADCP,ioos:station:wmo:42369:1,2013-08-03T19:40:00Z,27.2070,-90.2830,60.4,1.4,209.0,99.0,'11111222,11111222,11144222' 
ADCP,ioos:station:wmo:42369:1,2013-08-03T20:00:00Z,27.2070,-90.2830,60.4,1.4,209.0,99.0,'11111222,11111222,11144222' 
ADCP,ioos:station:wmo:42369:1,2013-08-03T20:20:00Z,27.2070,-90.2830,60.4,0.8,209.0,99.0,'11111222,11111222,11144222' 
ADCP,ioos:station:wmo:42369:1,2013-08-03T20:40:00Z,27.2070,-90.2830,60.4,0.8,209.0,99.0,'11111222,11111222,11144222' 
ADCP,ioos:station:wmo:42369:1,2013-08-03T21:00:00Z,27.2070,-90.2830,60.4,0.4,213.0,99.0,'11111222,11111222,11144222' 
ADCP,ioos:station:wmo:42369:1,2013-08-03T21:20:00Z,27.2070,-90.2830,60.4,0.4,213.0,99.0,'11111222,11111222,11144222' 
ADCP,ioos:station:wmo:42369:1,2013-08-03T21:40:00Z,27.2070,-90.2830,60.4,1.2,204.0,99.0,'11111222,11111222,11144222' 
ADCP,ioos:station:wmo:42369:1,2013-08-03T22:00:00Z,27.2070,-90.2830,60.4,0.8,225.0,99.0,'11111222,11111222,11144222' 
ADCP,ioos:station:wmo:42369:1,2013-08-03T22:20:00Z,27.2070,-90.2830,60.4,0.8,225.0,99.0,'11111222,11111222,11144222' 
ADCP,ioos:station:wmo:42369:1,2013-08-03T22:40:00Z,27.2070,-90.2830,60.4,0.8,225.0,99.0,'11111222,11111222,11144222' 
ADCP,ioos:station:wmo:42369:1,2013-08-03T23:00:00Z,27.2070,-90.2830,60.4,0.8,225.0,99.0,'11111222,11111222,11144222' 
ADCP,ioos:station:wmo:42369:1,2013-08-03T23:20:00Z,27.2070,-90.2830,60.4,1.3,194.0,99.0,'11111222,11111222,11144222' 
ADCP,ioos:station:wmo:42369:1,2013-08-03T23:40:00Z,27.2070,-90.2830,60.4,1.3,199.0,99.0,'11111222,11111222,11144222' 
ADCP,ioos:station:wmo:42369:1,2013-08-04T00:00:00Z,27.2070,-90.2830,60.4,1.3,199.0,99.0,'11111222,11111222,11144222' 
ADCP,ioos:station:wmo:42369:1,2013-08-04T00:20:00Z,27.2070,-90.2830,60.4,1.2,177.0,99.0,'11111222,11111222,11144222' 
ADCP,ioos:station:wmo:42369:1,2013-08-04T00:40:00Z,27.2070,-90.2830,60.4,0.7,164.0,99.0,'11111222,11111222,11144222' 
ADCP,ioos:station:wmo:42369:1,2013-08-04T01:00:00Z,27.2070,-90.2830,60.4,0.7,164.0,99.0,'11111222,11111222,11144222' 
ADCP,ioos:station:wmo:42369:1,2013-08-04T01:20:00Z,27.2070,-90.2830,60.4,0.7,164.0,99.0,'11111222,11111222,11144222' 
ADCP,ioos:station:wmo:42369:1,2013-08-04T01:40:00Z,27.2070,-90.2830,60.4,0.8,99.0,99.0,'11111222,11111222,11144222' 
ADCP,ioos:station:wmo:42369:1,2013-08-04T02:00:00Z,27.2070,-90.2830,60.4,0.8,99.0,99.0,'11111222,11111222,11144222' 
ADCP,ioos:station:wmo:42369:1,2013-08-04T02:20:00Z,27.2070,-90.2830,60.4,0.8,99.0,99.0,'11111222,11111222,11144222' 
ADCP,ioos:station:wmo:42369:1,2013-08-04T02:40:00Z,27.2070,-90.2830,60.4,0.3,126.0,99.0,'11111222,11111222,11144222' 
ADCP,ioos:station:wmo:42369:1,2013-08-04T03:00:00Z,27.2070,-90.2830,60.4,0.3,126.0,99.0,'11111222,11111222,11144222' 
ADCP,ioos:station:wmo:42369:1,2013-08-04T03:20:00Z,27.2070,-90.2830,60.4,0.3,126.0,99.0,'11111222,11111222,11144222' 
ADCP,ioos:station:wmo:42369:1,2013-08-04T03:40:00Z,27.2070,-90.2830,60.4,0.9,154.0,99.0,'11111222,11111222,11144222' 
ADCP,ioos:station:wmo:42369:1,2013-08-04T04:00:00Z,27.2070,-90.2830,60.4,0.9,154.0,99.0,'11111222,11111222,11144222' 
ADCP,ioos:station:wmo:42369:1,2013-08-04T04:20:00Z,27.2070,-90.2830,60.4,0.9,154.0,99.0,'11111222,11111222,11144222' 
ADCP,ioos:station:wmo:42369:1,2013-08-04T04:40:00Z,27.2070,-90.2830,60.4,0.9,154.0,99.0,'11111222,11111222,11144222' 
ADCP,ioos:station:wmo:42369:1,2013-08-04T05:00:00Z,27.2070,-90.2830,60.4,0.9,154.0,99.0,'11111222,11111222,11144222' 
ADCP,ioos:station:wmo:42369:1,2013-08-04T05:20:00Z,27.2070,-90.2830,60.4,4.2,194.0,99.0,'11111222,11111222,11144222' 
ADCP,ioos:station:wmo:42369:1,2013-08-04T05:40:00Z,27.2070,-90.2830,60.4,3.9,182.0,99.0,'11111222,11111222,11144222' 
ADCP,ioos:station:wmo:42369:1,2013-08-04T06:00:00Z,27.2070,-90.2830,60.4,4.4,180.0,99.0,'11111222,11111222,11144222' 
ADCP,ioos:station:wmo:42369:1,2013-08-04T06:20:00Z,27.2070,-90.2830,60.4,4.4,180.0,99.0,'11111222,11111222,11144222' 
ADCP,ioos:station:wmo:42369:1,2013-08-04T06:40:00Z,27.2070,-90.2830,60.4,4.3,189.0,99.0,'11111222,11111222,11144222' 
ADCP,ioos:station:wmo:42369:1,2013-08-04T07:00:00Z,27.2070,-90.2830,60.4,4.3,189.0,99.0,'11111222,11111222,11144222' 
ADCP,ioos:station:wmo:42369:1,2013-08-04T07:20:00Z,27.2070,-90.2830,60.4,4.3,189.0,99.0,'11111222,11111222,11144222' 
ADCP,ioos:station:wmo:42369:1,2013-08-04T07:40:00Z,27.2070,-90.2830,60.4,4.3,189.0,99.0,'11111222,11111222,11144222' 
ADCP,ioos:station:wmo:42369:1,2013-08-04T08:00:00Z,27.2070,-90.2830,60.4,4.3,189.0,99.0,'11111222,11111222,11144222' 
ADCP,ioos:station:wmo:42369:1,2013-08-04T08:20:00Z,27.2070,-90.2830,60.4,3.7,206.0,99.0,'11111222,11111222,11144222' 
ADCP,ioos:station:wmo:42369:1,2013-08-04T08:40:00Z,27.2070,-90.2830,60.4,3.6,209.0,99.0,'11111222,11111222,11144222' 
ADCP,ioos:station:wmo:42369:1,2013-08-04T09:00:00Z,27.2070,-90.2830,60.4,3.6,206.0,99.0,'11111222,11111222,11144222' 
ADCP,ioos:station:wmo:42369:1,2013-08-04T09:20:00Z,27.2070,-90.2830,60.4,3.6,206.0,99.0,'11111222,11111222,11144222' 
ADCP,ioos:station:wmo:42369:1,2013-08-04T09:40:00Z,27.2070,-90.2830,60.4,3.1,218.0,99.0,'11111222,11111222,11144222' 
ADCP,ioos:station:wmo:42369:1,2013-08-04T10:00:00Z,27.2070,-90.2830,60.4,3.1,218.0,99.0,'11111222,11111222,11144222' 
ADCP,ioos:station:wmo:42369:1,2013-08-04T10:20:00Z,27.2070,-90.2830,60.4,2.9,213.0,99.0,'11111222,11111222,11144222' 
ADCP,ioos:station:wmo:42369:1,2013-08-04T10:40:00Z,27.2070,-90.2830,60.4,3.2,217.0,99.0,'11111222,11111222,11144222' 
ADCP,ioos:station:wmo:42369:1,2013-08-04T11:00:00Z,27.2070,-90.2830,60.4,3.2,218.0,99.0,'11111222,11111222,11144222' 
ADCP,ioos:station:wmo:42369:1,2013-08-04T11:20:00Z,27.2070,-90.2830,60.4,3.3,228.0,99.0,'11111222,11111222,11144222' 
ADCP,ioos:station:wmo:42369:1,2013-08-04T11:40:00Z,27.2070,-90.2830,60.4,3.3,228.0,99.0,'11111222,11111222,11144222' 
ADCP,ioos:station:wmo:42369:1,2013-08-04T12:00:00Z,27.2070,-90.2830,60.4,3.3,234.0,99.0,'11111222,11111222,11144222' 
ADCP,ioos:station:wmo:42369:1,2013-08-04T12:20:00Z,27.2070,-90.2830,60.4,3.3,234.0,99.0,'11111222,11111222,11144222' 
ADCP,ioos:station:wmo:42369:1,2013-08-04T12:40:00Z,27.2070,-90.2830,60.4,3.2,237.0,99.0,'11111222,11111222,11144222' 